User: anonymous   Login
Location: Unspecified
(0.0000°N, 0.0000°E)
Time: 20:26:03
(UTC+00:00)
Language:

A-11 Canister half - Orbit

View from above orbital plane
View from above orbital plane
View from above satellite
View from above satellite

Ground track
Ground track

The orbit data is extracted from the following two-line orbital elements,

1 00051U 60009C   17267.83450137  .00000015  00000-0  98335-3 0  9992
2 00051  47.2111 190.6946 0105657  78.4673 282.7956 12.18267208542588
Epoch (UTC): 24 September 2017 20:01:40
Eccentricity: 0.0105657
inclination: 47.2111°
perigee height: 1516 km
apogee height: 1684 km
right ascension of ascending node: 190.6946°
argument of perigee: 78.4673°
revolutions per day: 12.18267208
mean anomaly at epoch: 282.7956°
orbit number at epoch: 54258

The dashed part of the orbit path shows where the satellite is in the earth's shadow,  

DLR